Location: Caltech
(34.1382°N, 118.1253°W)
Time: 02:40:08
(UTC-07:00)

Cosmos 1606 - Visible Passes

Search period start: 31 July 2016 00:00
Search period end: 10 August 2016 00:00
Orbit: 509 x 532 km, 82.5° (Epoch: 31 July)

Date Brightness Start Highest point End Pass type
(mag) Time Alt. Az. Time Alt. Az. Time Alt. Az.
31 Jul 5.4 21:50:31 10° NW 21:53:07 17° W 21:55:43 10° SW visible
01 Aug 5.2 21:36:54 10° NW 21:39:49 20° W 21:42:43 10° SW visible
02 Aug 5.0 21:23:21 10° NW 21:26:31 24° W 21:29:39 10° SW visible
03 Aug 4.8 21:09:50 10° NNW 21:13:12 28° W 21:16:32 10° SSW visible
04 Aug 4.5 20:56:22 10° NNW 20:59:53 32° W 21:03:22 10° SSW visible
05 Aug 4.2 20:42:54 10° NNW 20:46:34 38° W 20:50:10 10° SSW visible
06 Aug 3.9 20:29:29 10° NNW 20:33:14 46° W 20:36:57 10° SSW visible
07 Aug 3.5 20:16:04 10° NNW 20:19:53 56° W 20:23:41 10° S visible
